Total_Precipitation_Accumulation
1.99 2.08 2.05 2.00 1.89 2.22 2.64 2.86 2.57 2.85 2.86 2.47 2.16 2.04 2.00 1.96 2.14 2.34 2.22 2.38 2.30 2.26 2.47 2.52 2.32 2.07 1.90 1.61 1.38 1.19 1.03 0.99 0.92 0.75 0.63 0.59 0.52 0.46 0.45 0.46 0.45 0.41 0.38
2.47 2.52 2.38 2.31 2.09 2.10 2.39 2.61 2.61 2.84 2.73 2.58 2.01 1.90 1.86 2.01 2.18 2.21 2.23 2.70 2.64 2.41 2.41 2.54 2.56 2.40 2.23 2.10 1.79 1.52 1.32 1.21 1.10 0.86 0.68 0.62 0.58 0.52 0.48 0.50 0.54 0.49 0.38
2.93 2.81 2.59 2.29 2.17 2.23 2.36 2.35 2.37 2.47 2.34 2.25 2.02 2.08 2.06 1.97 1.87 1.90 2.05 2.28 2.23 2.05 2.04 2.15 2.37 2.52 2.66 2.66 2.45 2.28 1.84 1.46 1.23 0.97 0.76 0.62 0.54 0.48 0.46 0.49 0.55 0.54 0.41
2.83 2.76 2.44 2.10 2.15 2.26 2.27 2.25 2.11 2.20 2.23 2.29 2.28 2.12 2.18 2.07 1.69 1.66 1.73 1.70 1.81 1.65 1.81 1.90 2.01 2.22 2.66 3.06 3.18 3.05 2.59 1.92 1.45 1.14 0.93 0.74 0.60 0.50 0.45 0.46 0.52 0.52 0.40
2.64 2.69 2.37 2.25 2.16 2.19 2.08 1.93 2.15 2.27 2.29 2.32 2.16 2.04 1.84 1.65 1.41 1.26 1.25 1.14 1.30 1.48 1.66 1.71 1.76 1.85 2.33 3.06 3.67 3.84 3.48 2.70 2.01 1.54 1.31 1.09 0.89 0.68 0.54 0.50 0.49 0.44 0.37
2.27 2.38 2.17 2.10 2.17 2.22 2.06 2.06 2.25 2.26 2.05 2.15 1.97 1.81 1.58 1.32 1.18 1.07 0.93 0.93 0.90 0.87 1.09 1.44 1.73 1.47 1.81 2.42 3.07 3.55 3.80 3.45 2.74 2.20 1.79 1.47 1.24 1.00 0.72 0.61 0.54 0.48 0.41
1.92 2.14 1.97 2.11 2.08 2.00 1.83 1.80 1.89 1.89 1.67 1.93 2.13 1.72 1.29 1.07 0.96 0.84 0.82 0.88 0.81 0.87 1.07 1.37 1.57 1.65 1.53 1.56 1.89 2.41 3.23 3.63 3.36 2.82 2.36 1.95 1.65 1.37 1.00 0.80 0.69 0.58 0.51
1.97 1.81 1.90 1.81 1.79 1.85 1.65 1.55 1.70 1.71 1.49 1.74 1.87 1.85 1.36 1.13 0.94 0.65 0.69 0.71 0.79 0.98 0.99 1.07 1.34 1.50 1.41 1.73 1.44 1.46 2.20 2.90 3.35 3.28 2.85 2.33 1.94 1.62 1.31 1.09 0.89 0.70 0.59
2.21 2.05 1.89 1.73 1.69 1.57 1.55 1.51 1.57 1.60 1.53 1.48 1.53 1.70 1.39 1.11 0.94 0.64 0.56 0.62 0.84 1.05 1.00 1.09 1.13 1.29 1.34 1.57 1.62 1.49 1.51 1.89 2.61 3.35 3.39 2.82 2.16 1.64 1.34 1.29 1.21 0.96 0.76
2.49 2.20 1.99 1.78 1.56 1.41 1.53 1.29 1.36 1.55 1.63 1.40 1.35 1.31 1.26 1.37 1.36 1.03 0.69 0.56 0.78 0.90 0.93 0.90 0.99 1.23 1.37 1.55 1.71 1.74 1.52 1.45 1.88 2.71 3.25 3.17 2.66 2.04 1.62 1.54 1.73 1.64 1.20
2.28 2.00 1.86 1.76 1.51 1.31 1.30 1.31 1.48 1.46 1.44 1.34 1.35 1.32 1.39 1.51 1.39 1.30 1.04 0.88 0.87 0.76 0.73 0.78 0.94 1.14 1.29 1.55 1.86 1.89 1.98 1.70 1.58 1.80 2.24 2.53 2.65 2.42 2.08 2.02 2.40 2.62 2.25
1.93 1.80 1.67 1.62 1.46 1.32 1.31 1.27 1.36 1.41 1.45 1.48 1.46 1.44 1.49 1.45 1.44 1.59 1.40 1.21 1.10 0.89 0.82 0.93 1.08 1.23 1.35 1.50 1.55 1.70 1.76 1.77 1.68 1.62 1.67 1.82 2.05 2.23 2.29 2.37 2.66 2.99 3.10
1.50 1.51 1.57 1.59 1.44 1.37 1.40 1.50 1.47 1.40 1.43 1.51 1.48 1.53 1.56 1.48 1.56 1.71 1.68 1.45 1.33 1.21 1.24 1.21 1.19 1.35 1.33 1.48 1.64 1.51 1.31 1.37 1.38 1.35 1.34 1.33 1.43 1.67 1.85 1.95 2.27 2.63 2.95
1.40 1.45 1.60 1.63 1.52 1.42 1.36 1.54 1.51 1.52 1.58 1.56 1.47 1.67 1.69 1.52 1.67 1.86 1.93 1.92 1.75 1.67 1.69 1.63 1.37 1.31 1.34 1.44 1.57 1.44 1.29 1.22 0.99 0.89 0.89 0.94 0.98 1.10 1.23 1.39 1.59 1.78 2.05
1.51 1.58 1.62 1.72 1.74 1.74 1.69 1.72 1.62 1.66 1.83 1.82 1.75 1.80 1.80 1.70 1.75 1.86 2.01 2.12 2.14 2.05 1.96 1.85 1.54 1.38 1.33 1.32 1.41 1.40 1.52 1.36 0.95 0.76 0.68 0.68 0.68 0.73 0.81 0.95 1.10 1.26 1.40
1.63 1.65 1.63 1.66 1.71 1.75 1.74 1.80 1.78 1.83 1.98 1.98 2.03 2.12 2.05 1.88 1.92 1.95 2.02 2.17 2.33 2.37 2.15 1.86 1.64 1.46 1.39 1.24 1.30 1.23 1.30 1.19 0.87 0.74 0.65 0.61 0.58 0.59 0.65 0.72 0.81 0.95 1.06
1.57 1.60 1.59 1.55 1.51 1.56 1.73 1.87 1.85 1.93 2.00 2.03 2.03 2.01 1.95 1.97 2.03 1.92 1.98 2.07 2.21 2.38 2.20 1.95 1.81 1.73 1.68 1.59 1.46 1.21 1.05 0.95 0.83 0.82 0.70 0.61 0.59 0.60 0.60 0.63 0.67 0.75 0.86
1.54 1.55 1.54 1.50 1.45 1.54 1.76 1.88 1.94 2.13 2.20 2.12 2.04 1.99 1.88 1.95 2.03 1.97 2.00 1.96 2.02 2.27 2.23 2.10 2.03 2.04 1.95 1.76 1.65 1.46 1.16 1.03 1.00 0.99 0.86 0.71 0.62 0.61 0.60 0.60 0.65 0.69 0.76
1.49 1.49 1.52 1.57 1.68 1.79 1.95 2.04 2.10 2.22 2.20 2.11 2.11 2.03 1.90 1.93 1.91 1.98 2.03 2.01 1.96 2.01 2.15 2.11 2.05 2.14 2.07 1.86 1.73 1.56 1.41 1.46 1.29 1.08 0.93 0.79 0.70 0.65 0.64 0.60 0.64 0.72 0.84
1.32 1.38 1.57 1.81 1.97 2.07 2.13 2.18 2.17 2.15 2.11 1.98 1.88 1.78 1.77 1.85 1.92 1.93 1.85 1.85 1.87 1.94 2.00 2.02 2.03 2.13 2.16 2.09 1.93 1.78 1.74 1.71 1.55 1.16 1.04 0.91 0.83 0.74 0.67 0.61 0.61 0.73 0.87
1.35 1.53 1.71 1.83 1.85 1.88 1.94 2.06 2.07 2.03 1.97 1.84 1.70 1.49 1.44 1.64 1.76 1.77 1.63 1.71 1.77 1.81 1.84 1.91 1.97 2.08 2.14 2.26 2.08 1.84 1.79 1.86 1.77 1.58 1.43 1.22 1.08 0.98 0.93 0.86 0.77 0.75 0.78
1.53 1.68 1.72 1.70 1.64 1.40 1.47 1.59 1.65 1.69 1.69 1.64 1.50 1.41 1.38 1.41 1.37 1.35 1.32 1.33 1.41 1.52 1.69 1.92 2.02 2.04 2.03 2.13 2.22 2.13 2.06 2.02 1.98 1.90 1.94 1.82 1.52 1.43 1.34 1.23 1.10 0.87 0.74
1.69 1.73 1.73 1.64 1.55 1.52 1.42 1.29 1.27 1.33 1.44 1.46 1.47 1.52 1.31 1.17 1.27 1.25 1.30 1.25 1.20 1.24 1.36 1.61 1.82 1.86 1.96 1.99 2.24 2.27 2.30 2.37 2.34 2.29 2.30 2.30 1.97 1.70 1.48 1.40 1.29 1.00 0.82
1.88 1.85 1.83 1.76 1.74 1.68 1.56 1.33 1.23 1.20 1.38 1.44 1.45 1.48 1.47 1.40 1.38 1.44 1.46 1.38 1.24 1.20 1.18 1.17 1.37 1.63 1.85 2.08 2.14 2.20 2.30 2.37 2.36 2.22 2.19 2.27 2.13 1.97 1.65 1.36 1.23 1.06 0.88
1.98 1.93 1.95 1.92 1.89 1.89 1.71 1.39 1.25 1.26 1.45 1.50 1.50 1.48 1.46 1.42 1.44 1.30 1.27 1.29 1.28 1.25 1.09 1.09 1.17 1.37 1.53 1.61 1.82 2.04 2.21 2.16 2.07 1.86 1.69 1.78 1.84 1.86 1.82 1.61 1.27 1.14 0.96
2.06 2.02 1.99 1.96 1.91 1.91 1.83 1.39 1.19 1.22 1.43 1.50 1.57 1.55 1.43 1.31 1.28 1.15 1.14 1.27 1.26 1.23 1.23 1.17 1.08 1.10 1.17 1.29 1.36 1.41 1.68 1.86 1.77 1.68 1.45 1.36 1.34 1.43 1.56 1.43 1.22 1.15 1.13